Location: Banios
(43.0451°N, 0.2335°E)
Time: 12:54:17
(UTC+00:00)

USA 305 - Pass Details

Date: 25 January 2021
Orbit: 565 x 578 km, 54.0° (Epoch: 24 February)

Event Time Altitude Azimuth Distance (km) Brightness Sun altitude
Exits shadow 04:46:30 37° 124° (SE) 889 4.2 -28.1°
Drops below altitude 10° 04:50:09 10° 66° (ENE) 1,861 6.3 -27.5°
Sets 04:52:31 0° 58° (ENE) 2,761 7.2 -27.0°
